STARLINK-36163 (67008 NORAD) Tracking and Keplerian Element Data

This shows tracking and keplerian element data for the satellite.

Feedback or suggestion? Click here.




ElementValue
Catalog67008
NameSTARLINK-36163
Epoch Orbit138
Epoch Day354.25003472
Epoch Year2025
RAAN301.9761
Inclination69.9943
Eccentricity0.0003864
Argument of Perigee271.9008
Mean Anonmoly305.4651
Mean Motion15.9217883
Decay Rate-0.01087481
L11 67008U 25293F 25354.25003472 -.01087481 35349-3 -32480-2 0 9991
L22 67008 69.9943 301.9761 0003864 271.9008 305.4651 15.92178830 1388



Live tracking and technical data element details for STARLINK-36163 (NORAD 67008). STARLINK-36163 can be tracked NOW for your location showing map with azimuth and elevation plus other details from your city location.







IsCatalogInMostPopularTable: catalog: 67008, numindb: 43
Update: records affected: 1



GetName: 67008 STARLINK-36163

Hit Count: updated at: Tue, 17 Feb 2026 11:02:37 GMT